[[{"header":{"parameterUnit":"m.s-1","parameterCategory":1,"la1":30.2992,"la2":30.254,"lo1":-89.0895,"lo2":-89.0443,"dy":0.0025,"dx":0.0025,"nx":19,"ny":19,"refTime":"2026-04-04T09:00:00:Z","depth":0,"parameterNumber":2,"parameterNumberName":"U-component_of_WINDS"},"data":[0,0,0,-0.3912,-0.391,-0.3839,-0.3838,-0.3745,-0.3744,0,0,0,0,0,0,0,0,0,0,0,-0.3931,-0.393,-0.3912,-0.391,-0.3839,-0.3838,-0.3745,-0.3744,0,0,0,0,0,0,0,0,0,0,0,-0.3931,-0.393,-0.3929,-0.391,-0.3839,-0.3838,-0.3745,-0.38,0,0,0,0,0,0,0,0,0,0,-0.387,-0.3886,-0.3931,-0.3929,-0.3909,-0.3839,-0.3838,-0.3803,-0.3797,-0.3776,0,-0.3756,0,-0.3748,-0.3737,-0.3737,0,0,0,-0.3912,-0.3891,-0.3873,-0.3929,-0.3909,-0.3839,-0.3871,-0.3799,-0.3792,-0.3768,-0.3755,-0.3752,-0.3747,-0.3737,-0.3736,-0.3607,-0.3606,0,0,-0.3916,-0.3917,-0.3878,-0.3868,-0.3878,-0.3874,-0.3869,-0.3795,-0.3782,-0.3755,-0.375,-0.3745,-0.3736,-0.3735,-0.3608,-0.3607,0,0,0,-0.3926,-0.392,-0.3904,-0.3872,-0.3859,-0.3872,-0.3866,-0.3785,-0.378,-0.3749,-0.3744,-0.3736,-0.3734,-0.3609,-0.3608,-0.3573,0,0,0,-0.3928,-0.3926,-0.3906,-0.3906,-0.3861,-0.3821,-0.3858,-0.3785,-0.3777,-0.3745,-0.3736,-0.3733,-0.3609,-0.3608,-0.3576,-0.3556,0,0,0,-0.3936,-0.3927,-0.3916,-0.3906,-0.3876,-0.3822,-0.3813,-0.3783,-0.3774,-0.3737,-0.3733,-0.361,-0.3608,-0.3578,-0.356,-0.3521,0,0,0,-0.3946,-0.3889,-0.3915,-0.385,-0.3876,-0.3802,-0.3813,-0.3758,-0.3723,-0.3735,-0.3609,-0.3608,-0.3579,-0.3563,-0.3523,-0.3487,-0.3472,0,0,-0.3875,-0.388,-0.3841,-0.3863,-0.3784,-0.3813,-0.3728,-0.3696,-0.3692,-0.3636,-0.3632,-0.3575,-0.356,-0.3521,-0.3392,-0.338,0,0,0,-0.3819,-0.3791,-0.377,-0.3735,-0.3707,-0.3681,-0.366,-0.3648,-0.3599,-0.3663,-0.3551,-0.3542,-0.3519,-0.3502,-0.3492,-0.3471,-0.36,-0.36,-0.36,-0.3721,-0.3717,-0.3651,-0.3638,-0.3604,-0.3582,-0.3553,-0.3533,-0.3541,-0.3514,-0.3497,-0.3419,-0.3398,-0.3391,-0.3369,-0.3479,-0.3479,-0.3479,-0.3479,-0.3615,-0.3574,-0.3582,-0.3522,-0.3517,-0.3467,-0.3443,-0.3449,-0.3401,-0.3432,-0.3412,-0.3444,-0.3378,-0.3359,-0.3476,-0.3476,-0.3477,-0.3477,-0.3477,-0.3549,-0.3528,-0.3512,-0.3459,-0.3419,-0.3408,-0.336,-0.3359,-0.3358,-0.3337,-0.3318,-0.3318,-0.3317,-0.3328,-0.3328,-0.3328,-0.3328,-0.3327,-0.3327,-0.3486,-0.3469,-0.3428,-0.3391,-0.3367,-0.3335,-0.3311,-0.3287,-0.3261,-0.3264,-0.3263,-0.3272,-0.3373,-0.3397,-0.3323,-0.3324,-0.3324,-0.3325,-0.3325,-0.3378,-0.3401,-0.3338,-0.3313,-0.3268,-0.3227,-0.3225,-0.3176,-0.3157,-0.3133,-0.3146,-0.3221,-0.3227,-0.3235,-0.3255,-0.3148,-0.3148,-0.3148,-0.3148,-0.332,-0.3323,-0.3256,-0.3216,-0.3177,-0.3168,-0.3096,-0.3075,-0.3058,-0.3046,-0.3061,-0.3088,-0.3096,-0.3097,-0.3108,-0.3126,-0.299,-0.299,-0.2989,-0.3252,-0.325,-0.3189,-0.317,-0.3134,-0.3103,-0.3034,-0.2988,-0.2974,-0.2983,-0.3035,-0.3042,-0.3085,-0.31,-0.3109,-0.3126,-0.316,0,0]},{"header":{"parameterUnit":"m.s-1","parameterCategory":1,"la1":30.2992,"la2":30.254,"lo1":-89.0895,"lo2":-89.0443,"dy":0.0025,"dx":0.0025,"nx":19,"ny":19,"refTime":"2026-04-04T09:00:00:Z","depth":0,"parameterNumber":3,"parameterNumberName":"V-component_of_WINDS"},"data":[0,0,0,3.9529,3.9535,3.9835,3.9836,4.0202,4.0205,0,0,0,0,0,0,0,0,0,0,0,3.9426,3.9428,3.9528,3.9535,3.9835,3.9836,4.0201,4.0205,0,0,0,0,0,0,0,0,0,0,0,3.9425,3.9428,3.943,3.9536,3.9835,3.9837,4.02,3.9981,0,0,0,0,0,0,0,0,0,0,3.9693,3.9585,3.9427,3.943,3.9538,3.9834,3.9837,3.9971,3.9995,4.0057,0,4.0107,0,4.0161,4.0228,4.0229,0,0,0,3.9546,3.9564,3.9657,3.943,3.9541,3.9834,3.9703,3.9984,4.0011,4.0089,4.0112,4.0126,4.0167,4.023,4.0232,4.0552,4.0553,0,0,3.9529,3.9473,3.9639,3.9674,3.9624,3.9693,3.9712,4.0001,4.0024,4.0114,4.0135,4.0173,4.0232,4.0235,4.0551,4.0552,0,0,0,3.9475,3.9461,3.9548,3.9659,3.9714,3.9701,3.9723,4.0011,4.0044,4.0139,4.0178,4.0234,4.0239,4.055,4.0552,4.0547,0,0,0,3.9465,3.9429,3.954,3.9509,3.9708,3.9866,3.9726,4.0024,4.0058,4.0176,4.0234,4.0242,4.0549,4.0551,4.0545,4.0554,0,0,0,3.9411,3.9423,3.9462,3.9505,3.9632,3.9862,3.9912,4.0033,4.0081,4.0229,4.0243,4.0548,4.0551,4.0543,4.0551,4.0623,0,0,0,3.9338,3.9453,3.9461,3.9604,3.9629,3.9856,3.9911,4.0084,4.021,4.0236,4.0549,4.0551,4.0542,4.0549,4.0621,4.0675,4.0691,0,0,3.9452,3.9464,3.9553,3.9569,3.9781,3.9815,4.0027,4.0197,4.0263,4.0452,4.0461,4.0545,4.0551,4.0623,4.0802,4.0814,0,0,0,3.9571,3.9634,3.9702,3.9819,3.995,4.0065,4.0208,4.0271,4.0435,4.0348,4.0592,4.0597,4.0642,4.067,4.0681,4.0724,4.0562,4.0561,4.0561,3.9651,3.9729,3.9882,3.9997,4.011,4.0257,4.0357,4.0468,4.0513,4.0569,4.0627,4.0725,4.0756,4.0765,4.0809,4.066,4.066,4.066,4.066,3.9826,3.9929,3.9987,4.0157,4.024,4.0384,4.0531,4.0559,4.0707,4.0688,4.0732,4.0705,4.0776,4.0819,4.0661,4.0661,4.0661,4.0661,4.0661,3.9888,3.9951,4.0026,4.0205,4.0334,4.0447,4.0587,4.0658,4.0725,4.0768,4.0837,4.0838,4.0848,4.0795,4.0796,4.0796,4.0797,4.0797,4.0797,3.9924,4.0008,4.0116,4.0267,4.0352,4.0474,4.0624,4.0712,4.0827,4.0867,4.0868,4.0909,4.0768,4.0732,4.0803,4.0802,4.0801,4.0801,4.08,4.0074,4.0052,4.0218,4.0304,4.0488,4.0614,4.0702,4.0874,4.0957,4.1024,4.1057,4.094,4.0959,4.0951,4.0921,4.1038,4.1038,4.1038,4.1038,4.0128,4.0144,4.0332,4.0465,4.0603,4.0701,4.089,4.1009,4.1128,4.1185,4.1178,4.1145,4.1134,4.116,4.1147,4.1121,4.1285,4.1286,4.1286,4.0226,4.0259,4.0405,4.052,4.067,4.0798,4.0979,4.1132,4.1263,4.1297,4.1232,4.1221,4.1168,4.1147,4.1179,4.1158,4.1112,0,0]}]]